Location: Niles Junction
(37.5763°N, 121.9714°W)
Time: 13:41:41
(UTC+00:00)

CZ-4B R/B - Pass Details

Date: 29 October 2020
Orbit: 495 x 648 km, 97.8° (Epoch: 01 December)

Event Time Altitude Azimuth Distance (km) Brightness Sun altitude
Rises 12:54:59 0° 12° (NNE) 2,835 7.6 -19.4°
Reaches altitude 10° 12:57:12 10° 12° (NNE) 1,904 6.7 -19.0°
Maximum altitude 13:01:20 90° 333° (NNW) 566 3.8 -18.2°
Drops below altitude 10° 13:05:14 10° 193° (SSW) 1,798 6.3 -17.4°
Sets 13:07:16 0° 194° (SSW) 2,661 7.2 -17.0°
